CST,Max TemperatureF,Mean TemperatureF,Min TemperatureF,Max Dew PointF,MeanDew PointF,Min DewpointF,Max Humidity, Mean Humidity, Min Humidity, Max Sea Level PressureIn, Mean Sea Level PressureIn, Min Sea Level PressureIn, Max VisibilityMiles, Mean VisibilityMiles, Min VisibilityMiles, Max Wind SpeedMPH, Mean Wind SpeedMPH, Max Gust SpeedMPH,PrecipitationIn, CloudCover, Events, WindDirDegrees
2012-12-1,71,52,33,53,46,33,92,71,49,30.29,30.23,30.19,10,10,9,18,6,23,0.00,0,,198
2012-12-2,72,63,53,59,56,50,93,77,61,30.29,30.22,30.17,10,10,8,15,8,18,0.00,5,,197
2012-12-3,74,63,51,56,54,50,100,77,53,30.24,30.18,30.13,10,10,8,17,9,22,0.00,2,,200
2012-12-4,72,65,57,64,59,55,93,83,73,30.22,30.17,30.11,10,8,1,20,7,25,1.43,7,Rain,197
2012-12-5,62,56,50,56,53,46,100,82,64,30.25,30.18,30.09,10,7,1,13,6,16,0.00,7,,49
2012-12-6,65,59,53,59,55,46,100,86,72,30.08,30.02,29.96,10,6,0,13,4,15,0.10,7,Fog-Rain,163
2012-12-7,66,61,55,59,56,53,93,86,78,30.00,29.94,29.88,10,9,4,16,9,21,0.00,6,,195
2012-12-8,71,65,59,61,58,57,97,82,66,29.97,29.94,29.89,10,7,0,14,8,17,T,6,,201
2012-12-9,71,66,61,63,60,59,97,84,70,29.97,29.89,29.77,10,9,6,18,11,23,0.00,5,,196
2012-12-10,68,51,34,64,46,27,93,82,70,30.07,29.84,29.74,10,8,1,22,9,32,1.20,8,Rain,351
2012-12-11,47,38,29,27,25,22,85,62,38,30.26,30.17,30.07,10,10,10,15,8,20,0.00,3,,37
2012-12-12,52,40,28,27,24,21,85,58,30,30.34,30.30,30.25,10,10,10,14,7,21,0.00,0,,39
2012-12-13,59,42,25,30,26,19,85,54,23,30.42,30.34,30.27,10,10,10,7,1,9,0.00,0,,26
2012-12-14,60,44,27,44,37,25,92,73,53,30.33,30.24,30.14,10,10,10,13,4,16,0.02,1,Rain,204
2012-12-15,64,56,48,57,50,44,93,80,67,30.10,30.00,29.89,10,10,8,23,12,31,0.13,8,Rain,189
2012-12-16,63,61,59,61,59,56,100,94,87,29.89,29.83,29.76,10,8,2,30,9,39,1.15,8,Rain,207
2012-12-17,68,56,43,57,53,39,100,78,55,29.88,29.75,29.65,10,10,7,17,7,23,0.01,5,,244
2012-12-18,62,48,34,44,39,34,100,75,49,30.00,29.94,29.88,10,7,0,15,6,17,0.00,0,Fog,199
2012-12-19,68,55,42,50,44,40,89,67,45,30.03,29.93,29.80,10,10,10,20,7,26,0.00,0,,188
2012-12-20,63,51,39,61,40,17,90,65,40,30.14,29.83,29.59,10,9,2,29,15,41,0.32,6,Rain,267
2012-12-21,49,39,28,22,15,5,69,43,16,30.35,30.27,30.14,10,10,10,18,8,28,0.00,0,,325
2012-12-22,56,40,24,29,24,17,88,60,32,30.38,30.29,30.18,10,10,10,9,4,13,0.00,0,,200
2012-12-23,52,44,36,50,42,30,100,83,65,30.16,30.04,29.88,10,8,3,13,8,16,0.33,7,Rain,202
2012-12-24,65,57,49,56,51,45,100,78,56,29.96,29.87,29.80,10,8,0,16,6,21,0.00,5,,269
2012-12-25,54,50,45,49,45,41,93,88,83,29.96,29.73,29.43,10,6,1,31,11,40,1.75,7,Rain,67
2012-12-26,50,42,33,39,30,25,93,81,69,30.21,29.85,29.48,10,10,6,22,10,33,T,8,,318
2012-12-27,41,37,32,29,27,24,82,71,60,30.22,30.15,30.07,10,10,10,12,5,14,0.00,5,,76
2012-12-28,41,38,34,41,36,29,93,84,75,30.09,29.93,29.76,10,6,2,15,7,21,0.56,8,Rain,136
2012-12-29,40,34,27,37,28,21,92,74,56,30.45,30.17,29.90,10,10,10,15,7,24,0.00,7,,334
2012-12-30,45,33,21,30,24,19,92,68,43,30.56,30.46,30.37,10,9,5,8,2,10,0.00,0,,35
2012-12-31,49,42,34,45,34,29,89,71,53,30.36,30.21,30.02,10,9,4,18,6,25,0.09,6,Rain,196